Location: Clinton NY
(43.0598°N, 75.3602°W)
Time: 11:32:09
(UTC-04:00)

Iridium 11 - Visible Passes

Search period start: 21 April 2014 00:00
Search period end: 01 May 2014 00:00
Orbit: 776 x 779 km, 86.4° (Epoch: 20 April)

Date Brightness Start Highest point End Pass type
(mag) Time Alt. Az. Time Alt. Az. Time Alt. Az.
21 Apr 7.6 00:59:30 10° NNW 01:01:54 21° NW 01:01:54 21° NW visible
21 Apr 7.2 22:45:20 10° NNE 22:48:07 21° NE 22:48:07 21° NE visible
22 Apr 7.0 00:25:25 10° NNW 00:28:36 32° NW 00:28:36 32° NW visible
22 Apr 7.7 22:13:14 10° NE 22:14:50 13° ENE 22:14:50 13° ENE visible
22 Apr 6.4 23:51:41 10° N 23:55:18 46° NNW 23:55:18 46° NNW visible
23 Apr 6.3 23:18:12 10° N 23:22:01 44° NNE 23:22:01 44° NNE visible
24 Apr 7.8 01:00:13 10° NW 01:02:30 16° WNW 01:02:30 16° WNW visible
24 Apr 6.7 22:45:01 10° NNE 22:48:44 30° ENE 22:48:44 30° ENE visible
25 Apr 7.1 00:25:47 10° NNW 00:29:13 28° WNW 00:29:13 28° WNW visible
25 Apr 7.2 22:12:17 10° NNE 22:15:27 18° ENE 22:15:27 18° ENE visible
25 Apr 6.3 23:51:51 10° NNW 23:55:56 47° NW 23:55:56 47° NW visible
26 Apr 5.8 23:18:13 10° N 23:22:39 64° NNE 23:22:39 64° NNE visible
27 Apr 8.0 01:01:29 10° NW 01:03:08 12° WNW 01:03:08 12° WNW visible
27 Apr 6.1 22:44:50 10° N 22:49:24 44° ENE 22:49:24 44° ENE visible
28 Apr 7.4 00:26:19 10° NNW 00:29:52 22° WNW 00:29:52 22° WNW visible
28 Apr 6.7 22:11:48 10° NNE 22:16:06 26° ENE 22:16:08 26° ENE visible
28 Apr 6.6 23:52:07 10° NNW 23:56:37 38° WNW 23:56:37 38° WNW visible
29 Apr 7.3 21:39:25 10° NE 21:42:13 15° ENE 21:42:53 14° E visible
29 Apr 5.6 23:18:19 10° N 23:23:22 70° WNW 23:23:22 70° WNW visible
30 Apr 5.5 22:44:46 10° N 22:49:58 65° E 22:50:07 65° E visible
